Location: Seattle
(47.6060°N, 122.3310°W)
Time: 01:16:12
(UTC-07:00)

ISS - Visible Passes

Search period start: 24 March 2017 00:00
Search period end: 03 April 2017 00:00
Orbit: 399 x 409 km, 51.6° (Epoch: 24 March)

Date Brightness Start Highest point End Pass type
(mag) Time Alt. Az. Time Alt. Az. Time Alt. Az.
26 Mar -1.2 21:23:34 10° SSW 21:23:50 12° SSW 21:23:50 12° SSW visible
27 Mar -2.2 20:32:00 10° S 20:34:13 17° SE 20:34:41 17° SE visible
27 Mar -1.0 22:07:02 10° WSW 22:07:24 13° WSW 22:07:24 13° WSW visible
28 Mar -3.8 21:14:43 10° SW 21:17:55 56° SSE 21:17:59 56° SE visible
29 Mar -3.1 20:22:37 10° SSW 20:25:36 33° SE 20:28:19 12° E visible
29 Mar -2.4 21:58:44 10° W 22:01:00 38° WNW 22:01:00 38° WNW visible
30 Mar -3.8 21:06:14 10° WSW 21:09:30 81° NNW 21:11:06 27° ENE visible
30 Mar -0.7 22:43:07 10° WNW 22:43:47 15° WNW 22:43:47 15° WNW visible
31 Mar -3.8 20:13:50 10° SW 20:17:03 66° SSE 20:20:19 10° ENE visible
31 Mar -2.8 21:50:31 10° W 21:53:39 43° N 21:53:43 43° N visible
01 Apr -3.1 20:57:54 10° W 21:01:06 52° NNW 21:03:33 16° ENE visible
01 Apr -1.2 22:34:49 10° WNW 22:36:11 21° NW 22:36:11 21° NW visible
02 Apr -2.7 21:42:15 10° WNW 21:45:21 38° N 21:45:54 35° NNE visible
